Location: Unspecified
(42.7170°S, 0.0000°E)
Time: 10:47:08
(UTC+00:00)

N. Korean satellite - Pass Details

Date: 29 May 2019
Orbit: 455 x 510 km, 97.2° (Epoch: 15 June)

Event Time Altitude Azimuth Distance (km) Brightness Sun altitude
Rises 06:22:47 0° 327° (NNW) 2,485 10.0 -10.0°
Reaches altitude 10° 06:25:53 10° 296° (WNW) 1,633 8.8 -9.5°
Maximum altitude 06:27:22 12° 270° (W) 1,509 8.5 -9.2°
Enters shadow 06:27:53 12° 261° (W) 1,529 8.4 -9.1°
